Вернуться в каталог

SL-14 DEB

АктивенPO
NORAD 19175·DEBRIS·🇷🇺 Russia

Запущен Oct 26, 1978 с Plesetsk Cosmodrome

Loading…

Ближайшие Пролёты (ближайшие 24 часа)

TLE

СвежийSource: Space-Track

Эпоха: Sep 14, 2026, 15:56 UTC

1 19175U 78100S   26257.66391404  .00003073  00000-0  43669-2 0  9997
2 19175  82.3469 144.0294 0277678 278.3880  95.6923 13.41734445772774

Отслеживайте SL-14 DEB в реальном времени с AllMySat

Download on the App Store